Content
SEND FEEDBACK

Daily
Averages
Monthly
Summary
United States of America

TELEPHONE, TEXAS


Home > North America > United States > Texas
Elevation: 520 feet     Latitude: 33 47N     Longitude: 096 02W

WEATHER
 
SELECT A DAY
Number of Records: 323,666;   Date Range: 3/30/01 - 7/20/14
 
SHARE

PRINT THIS DATA

[ ← Previous Day ]
WEATHER ALMANAC - JANUARY 31, 2013
[ Next Day → ]
[ °C ]   °F
Weather ElementAverageHighLow
Temperature40.1 °F64.4 °F (12:35 pm)32 °F (3:35 am)
Dewpoint25.4 °F32 °F (7:55 pm)19.4 °F (11:35 am)
Humidity60.8 %80 % (3:35 am)18 % (12:35 pm)
Barometer30.16 in30.37 in (10:55 pm)30.10 in (12:35 am)
Wind Speed10.2 mph26.5 mph (8:15 pm)
Wind Gust29.9 mph (7:55 pm)
Weather ElementAverage
Visibility10 mi
Wind DirectionSSW (187.7 °)

Weather ElementTotal
Precipitation---
Heating Degree Days16.8 (Base 65)
Averaged from 44 records on January 31, 2013
WEATHER CONDITIONS BREAKOUT
WIND DIRECTION BREAKOUT
WEATHER BY HOUR - JANUARY 31, 2013
[ °C ]   °F
Local TimeTemperatureDewpointHumidityBarometerVisibilityWind DirectionWind SpeedGust SpeedPrecipitationEventsConditions
12:35 AM35.6 °F26.6 °F70 %30.10 in10.0 miWSW (240°)4.6 mphClear
12:55 AM33.8 °F26.6 °F75 %30.11 in10.0 miWSW (250°)3.5 mphClear
1:15 AM35.6 °F26.6 °F70 %30.11 in10.0 miWSW (250°)4.6 mphClear
1:35 AM33.8 °F26.6 °F75 %30.11 in10.0 miWSW (250°)5.8 mphClear
1:55 AM35.6 °F26.6 °F70 %30.11 in10.0 miWest (260°)5.8 mphClear
2:15 AM35.6 °F26.6 °F70 %30.10 in10.0 miWSW (240°)5.8 mphClear
2:35 AM35.6 °F26.6 °F70 %30.11 in10.0 miWSW (240°)6.9 mphClear
2:55 AM33.8 °F26.6 °F75 %30.11 in10.0 miWSW (250°)5.8 mphClear
3:15 AM33.8 °F26.6 °F75 %30.10 in10.0 miSW (220°)5.8 mphClear
3:35 AM32.0 °F26.6 °F80 %30.10 in10.0 miSW (230°)5.8 mphClear
3:55 AM32.0 °F26.6 °F80 %30.11 in10.0 miSW (220°)6.9 mphClear
4:15 AM32.0 °F26.6 °F80 %30.10 in10.0 miSW (220°)9.2 mphClear
4:35 AM33.8 °F26.6 °F75 %30.10 in10.0 miSW (230°)8.1 mphClear
4:55 AM33.8 °F26.6 °F75 %30.10 in10.0 miSW (220°)6.9 mphClear
5:15 AM33.8 °F26.6 °F75 %30.10 in10.0 miCalmClear
5:35 AM32.0 °F26.6 °F80 %30.11 in10.0 miWSW (240°)3.5 mphClear
5:55 AM33.8 °F26.6 °F75 %30.12 in10.0 miSW (230°)8.1 mphClear
6:15 AM33.8 °F26.6 °F75 %30.12 in10.0 miWSW (240°)5.8 mphClear
6:35 AM32.0 °F26.6 °F80 %30.12 in10.0 miSW (230°)8.1 mphClear
6:55 AM33.8 °F24.8 °F70 %30.12 in10.0 miWSW (250°)6.9 mphClear
7:15 AM35.6 °F24.8 °F65 %30.13 in10.0 miWSW (250°)9.2 mphClear
7:35 AM35.6 °F26.6 °F70 %30.13 in10.0 miWSW (250°)6.9 mphClear
7:55 AM37.4 °F26.6 °F65 %30.14 in10.0 miWSW (250°)6.9 mphClear
8:15 AM37.4 °F26.6 °F65 %30.14 in10.0 miWSW (240°)6.9 mphClear
8:35 AM41.0 °F28.4 °F61 %30.14 in10.0 miWSW (240°)6.9 mphClear
8:55 AM42.8 °F28.4 °F57 %30.14 in10.0 miSW (230°)5.8 mphClear
9:15 AM44.6 °F28.4 °F53 %30.14 in10.0 miSW (220°)6.9 mphClear
9:35 AM46.4 °F28.4 °F50 %30.15 in10.0 miSSW (210°)8.1 mphClear
9:55 AM50.0 °F26.6 °F40 %30.15 in10.0 miSW (220°)5.8 mphClear
10:35 AM53.6 °F24.8 °F33 %30.15 in10.0 miSSW (200°)6.9 mphClear
11:15 AM59.0 °F24.8 °F27 %30.16 in10.0 miSSW (200°)12.7 mphClear
11:35 AM60.8 °F19.4 °F20 %30.15 in10.0 miSSW (210°)18.4 mphClear
11:55 AM62.6 °F19.4 °F19 %30.14 in10.0 miSSW (210°)16.1 mph21.9 mphClear
12:15 PM62.6 °F19.4 °F19 %30.14 in10.0 miSW (220°)19.6 mph25.3 mphClear
12:35 PM64.4 °F19.4 °F18 %30.13 in10.0 miSSW (200°)17.3 mph24.2 mphClear
12:55 PM64.4 °F19.4 °F18 %30.12 in10.0 miSW (220°)23.0 mphClear
7:55 PM44.6 °F32.0 °F61 %30.27 in10.0 miNNE (20°)23.0 mph29.9 mphClear
8:15 PM44.6 °F30.2 °F57 %30.28 in10.0 miNNE (20°)26.5 mph29.9 mphClear
10:15 PM35.6 °F26.6 °F70 %30.36 in10.0 miNNE (20°)20.7 mph24.2 mphClear
10:35 PM33.8 °F23.0 °F65 %30.36 in10.0 miNNE (20°)23.0 mph28.8 mphClear
10:55 PM33.8 °F21.2 °F60 %30.37 in10.0 miNNE (30°)16.1 mph25.3 mphClear
11:15 PM32.0 °F21.2 °F64 %30.37 in10.0 miNNE (20°)13.8 mphClear
11:35 PM32.0 °F21.2 °F64 %30.37 in10.0 miNNE (20°)13.8 mph19.6 mphClear
11:55 PM32.0 °F19.4 °F60 %30.37 in10.0 miNNE (30°)17.3 mph21.9 mphClear
Hourly data recorded from KDUA, located miles away from Telephone, Texas







STORIES FROM OUR PARTNERS